TimePST,TemperatureF,Dew PointF,Humidity,Sea Level PressureIn,VisibilityMPH,Wind Direction,Wind SpeedMPH,Gust SpeedMPH,PrecipitationIn,Events,Conditions,WindDirDegrees,DateUTC
12:54 AM,48.9,37.0,64,30.01,10.0,West,6.9,-,N/A,,Overcast,280,2013-02-19 08:54:00
1:54 AM,48.0,39.9,74,30.01,9.0,WNW,11.5,17.3,0.00,Rain,Light Rain,290,2013-02-19 09:54:00
2:22 AM,44.6,41.0,87,29.97,9.0,West,6.9,-,0.00,Rain,Light Rain,280,2013-02-19 10:22:00
2:33 AM,44.6,39.2,81,29.96,10.0,WNW,9.2,-,0.00,,Overcast,290,2013-02-19 10:33:00
2:54 AM,46.0,37.9,73,29.98,10.0,WNW,5.8,-,0.00,,Mostly Cloudy,300,2013-02-19 10:54:00
3:49 AM,46.4,39.2,76,29.94,9.0,WSW,5.8,-,N/A,,Overcast,250,2013-02-19 11:49:00
3:54 AM,46.9,39.9,77,29.97,10.0,WSW,5.8,-,N/A,,Overcast,240,2013-02-19 11:54:00
4:54 AM,46.9,41.0,80,29.96,10.0,SSE,6.9,-,N/A,,Overcast,160,2013-02-19 12:54:00
5:54 AM,46.9,39.9,77,29.95,10.0,SSE,8.1,-,N/A,,Overcast,150,2013-02-19 13:54:00
6:17 AM,46.4,39.2,76,29.91,10.0,South,9.2,-,N/A,,Overcast,170,2013-02-19 14:17:00
6:36 AM,46.4,41.0,81,29.91,7.0,South,5.8,-,0.00,Rain,Light Rain,180,2013-02-19 14:36:00
6:54 AM,46.9,42.1,83,29.94,3.0,SSW,8.1,-,0.01,Rain,Light Rain,210,2013-02-19 14:54:00
7:12 AM,46.4,42.8,87,29.90,10.0,South,9.2,-,0.00,,Overcast,180,2013-02-19 15:12:00
7:54 AM,46.0,42.1,86,29.91,10.0,SSE,11.5,-,0.00,,Overcast,160,2013-02-19 15:54:00
8:21 AM,46.4,42.8,87,29.87,3.0,SSE,8.1,-,0.00,,Overcast,160,2013-02-19 16:21:00
9:58 AM,48.2,42.8,82,29.86,1.5,West,11.5,17.3,0.05,Rain,Rain,270,2013-02-19 17:58:00
10:35 AM,46.4,42.8,87,29.85,1.8,West,8.1,-,0.19,Rain,Rain,270,2013-02-19 18:35:00
10:45 AM,44.6,42.8,93,29.85,2.0,WNW,16.1,24.2,0.23,Rain,Heavy Rain,290,2013-02-19 18:45:00
10:54 AM,45.0,39.9,82,29.88,3.0,West,13.8,23.0,0.26,Rain,Rain,280,2013-02-19 18:54:00
11:45 AM,46.4,42.8,87,29.83,10.0,North,8.1,-,0.02,,Overcast,350,2013-02-19 19:45:00
11:54 AM,46.0,41.0,83,29.86,10.0,North,5.8,-,0.02,,Overcast,350,2013-02-19 19:54:00
12:45 PM,46.4,39.2,76,29.82,2.0,WNW,18.4,23.0,0.03,Rain,Rain,300,2013-02-19 20:45:00
12:52 PM,44.6,39.2,81,29.83,3.0,NW,21.9,35.7,0.03,Rain,Light Rain,310,2013-02-19 20:52:00
12:54 PM,44.1,39.0,82,29.86,2.5,NNW,15.0,35.7,0.04,Rain,Rain,330,2013-02-19 20:54:00
12:59 PM,42.8,39.2,87,29.83,3.0,NNW,13.8,35.7,0.00,Rain,Light Rain,330,2013-02-19 20:59:00
1:54 PM,45.0,39.9,82,29.83,10.0,NNE,3.5,-,0.00,Rain,Light Rain,20,2013-02-19 21:54:00
2:54 PM,48.0,39.0,71,29.82,10.0,WNW,9.2,-,0.00,,Scattered Clouds,290,2013-02-19 22:54:00
4:54 PM,46.9,35.1,63,29.80,10.0,WNW,13.8,-,N/A,,Partly Cloudy,300,2013-02-20 00:54:00
5:54 PM,46.0,35.1,66,29.80,10.0,WNW,12.7,21.9,N/A,,Clear,300,2013-02-20 01:54:00
6:54 PM,44.1,30.9,60,29.81,10.0,WNW,6.9,17.3,N/A,,Partly Cloudy,300,2013-02-20 02:54:00
7:54 PM,44.1,32.0,63,29.82,10.0,NNW,5.8,-,N/A,,Clear,330,2013-02-20 03:54:00
8:54 PM,43.0,33.1,68,29.83,10.0,NNW,5.8,-,N/A,,Clear,330,2013-02-20 04:54:00
9:54 PM,42.1,33.1,70,29.85,10.0,NNW,3.5,-,N/A,,Clear,340,2013-02-20 05:54:00
10:54 PM,39.0,33.1,79,29.87,10.0,ENE,5.8,-,N/A,,Clear,60,2013-02-20 06:54:00
11:54 PM,39.9,34.0,79,29.88,10.0,Calm,Calm,-,N/A,,Overcast,0,2013-02-20 07:54:00